Regional Weather Roundup
Issued by NWS

Home | Current Version | Previous Version | Graphics & Text | Print | Product List | Glossary On
Versions: 1 2 3 4 5 6 7 8 9 10 11 12 13 14 15 16 17 18 19 20 21 22 23 24 25 26 27 28 29 30 31 32 33 34 35 36 37 38 39 40 41 42 43 44 45 46 47 48 49 50
000
ASUS43 KDMX 200306
RWRIA

WEATHER ROUNDUP FOR IOWA
NATIONAL WEATHER SERVICE DES MOINES IA
900 PM CST THU JAN 19 2017

NOTE: "FAIR" INDICATES FEW OR NO CLOUDS BELOW 12,000 FEET WITH NO
SIGNIFICANT WEATHER AND/OR OBSTRUCTIONS TO VISIBILITY.

* - THESE STATIONS ARE NOT NWS STATIONS...THUS NOT UNDER NWS
QUALITY CONTROL.  THEY ALSO DO NOT REPORT WEATHER SUCH
AS PRECIPITATION OR FOG.

IAZ001>003-012>014-020>022-031>034-043>046-200400-
   NORTHWEST IOWA

CITY           SKY/WX    TMP DP  RH WIND       PRES   REMARKS
CARROLL *      FOG       36  36 100 SE5       29.67F VSB 1/4 WCI  32
CHEROKEE *     CLOUDY    36  36 100 SE5       29.66F FOG     WCI  32
DENISON *      CLOUDY    37  37 100 E5        29.65S FOG     WCI  34
LE MARS *      CLOUDY    37  37 100 SE8       29.64F FOG     WCI  31
ORANGE CITY *  FOG       36  36 100 E7        29.63F VSB 1/2 WCI  30
SHELDON *      FOG       36  36 100 SE8       29.62F VSB 1/2 WCI  29
SIOUX CITY     FOG       40  39  97 SE9       29.63F VSB 1   WCI  34
SPENCER        FOG       36  36 100 SE7       29.66F VSB 3/4 WCI  30
STORM LAKE *   FOG       36  34  93 SE7       29.66S VSB<1/4 WCI  30
$$

IAZ055>058-069>071-079>083-090>094-200400-
   SOUTHWEST IOWA

CITY           SKY/WX    TMP DP  RH WIND       PRES   REMARKS
ATLANTIC *     CLOUDY    39  39 100 N5        29.66S FOG
AUDUBON *      CLOUDY    37  36  93 CALM      29.68S FOG
CLARINDA *     FOG       41  41 100 NE3       29.68S VSB 1
COUNCIL BLFS * FOG       39  39 100 CALM      29.66S VSB 1/4
CRESTON *      FOG       37  37 100 E5        29.67F VSB 1/4 WCI  34
HARLAN  *      FOG       39  39 100 CALM      29.69F VSB 3/4
LAMONI         FOG       40  40 100 NE5       29.65F VSB 1/4
RED OAK *      CLOUDY    41  41 100 CALM      29.66F FOG
SHENANDOAH *   FOG       39  39 100 CALM      29.67S VSB 1/4
$$

IAZ047>049-059>061-072>074-084-200400-
   CENTRAL IOWA

CITY           SKY/WX    TMP DP  RH WIND       PRES   REMARKS
AMES           FOG       36  36 100 E3        29.68F VSB 1/2
ANKENY *       FOG       36  36 100 SE3       29.70S VSB 1/2
BOONE *        FOG       36  36 100 E6        29.66F VSB<1/4 WCI  31
CHARITON *     FOG       37  37 100 E5        29.67S VSB 1/4 WCI  34
DES MOINES     DRZL/FOG  38  37  97 CALM      29.69S VSB 1/2
GRINNELL*      FOG       36  35  99 E6        29.69F VSB 1/4 WCI  31
KNOXVILLE *    MIX PCPN  37  37 100 E6        29.66F VSB 1/4 WCI  33
MARSHALLTOWN   FOG       35  35 100 E5        29.68F VSB 1/4 WCI  31
NEWTON *       FOG       37  36  93 E7        29.68F VSB 1/4 WCI  32
PELLA *        FOG       37  36  99 E3        29.69F VSB 1/2
PERRY *        FOG       36  35  98 E3        29.68S VSB 1/4
$$

IAZ004>006-015-016-023>025-035-036-200400-
   NORTH CENTRAL IOWA

CITY           SKY/WX    TMP DP  RH WIND       PRES   REMARKS
ALGONA *       FOG       36  36 100 SE9       29.67F VSB 1/4 WCI  29
CLARION *      FOG       36  36 100 SE9       29.68F VSB 1/4 WCI  29
ESTHERVILLE    FOG       33  33 100 SE6       29.65F VSB 1/4 WCI  28
FORT DODGE *   CLOUDY    36  34  93 CALM      29.68F VSB 1
MASON CITY     FOG       34  33  96 SE7       29.70F VSB 1/4 WCI  28
FOREST CITY *  FOG       34  34 100 SE6       29.68F VSB 1/2 WCI  29
WEBSTER CITY * FOG       36  36 100 SE6       29.66F VSB 1/2 WCI  31
IOWA FALLS *   FOG       36  35  96 E3        29.70F VSB 1/4
$$

IAZ007>011-017>019-026>030-037>042-050>054-066-200400-
   NORTHEAST IOWA

CITY           SKY/WX    TMP DP  RH WIND       PRES   REMARKS
CEDAR RAPIDS   CLOUDY    36  36 100 E7        29.69F FOG     WCI  30
CHARLES CITY * CLOUDY    36  36 100 SE10      29.70F FOG     WCI  28
CLINTON *      CLOUDY    37  36  96 E12       29.73F FOG     WCI  29
DECORAH *      CLOUDY    36  36 100 SE8       29.70F FOG     WCI  29
DUBUQUE        CLOUDY    36  35  96 SE9       29.73F FOG     WCI  29
MONTICELLO *   CLOUDY    37  37 100 E10       29.70F FOG     WCI  30
OELWEIN *      CLOUDY    36  36 100 SE12      29.70F FOG     WCI  27
WATERLOO       CLOUDY    36  35  96 SE8       29.70F FOG     WCI  30
$$

IAZ064-065-067-068-078-200400-
   EAST CENTRAL IOWA

CITY           SKY/WX    TMP DP  RH WIND       PRES   REMARKS
DAVENPORT      CLOUDY    37  36  96 E9        29.73F FOG     WCI  30
IOWA CITY      CLOUDY    38  37  97 E5        29.71F FOG     WCI  34
MUSCATINE *    CLOUDY    39  37  93 E6        29.72F FOG     WCI  35
QUAD CITIES    CLOUDY    38  36  92 E8        29.72F FOG     WCI  32
$$

IAZ062-063-075>077-085>089-095>099-200400-
   SOUTHEAST IOWA

CITY           SKY/WX    TMP DP  RH WIND       PRES   REMARKS
BURLINGTON     FOG       40  40 100 E7        29.68F VSB 3/4
FAIRFIELD *    FOG       39  39 100 E8        29.68S VSB 1/4 WCI  34
FORT MADISON * FOG       39  39 100 E5        29.69F VSB 1/4
KEOKUK *       FOG       41  41 100 E6        29.67F VSB<1/4
OSKALOOSA *    FOG       37  37  99 E6        29.68F VSB 1/2 WCI  32
OTTUMWA        FOG       38  38 100 E7        29.67F VSB 1/4 WCI  33
WASHINGTON *   FOG       37  37 100 E10       29.70F VSB 1/2 WCI  30
$$

ABBREVIATIONS USED IN REMARKS
   TC - TEMPERATURES IN CELSIUS
  WCI - WIND CHILL INDEX
   HX - HEAT INDEX
  VSB - VISIBILITY
$$





USA.gov is the U.S. government's official web portal to all federal, state and local government web resources and services.